Flag for U.S.A. Weather past 2 weeks in Salem, Oregon, U.S.A.

Now
46 °F

Passing clouds.


Feels Like: 42 °F
Forecast: 46 / 51 °F
Wind: 7 mph from Southeast

Location: McNary Field

Current Time: Dec 19, 2014 at 2:26:40 AM

Latest Report: Dec 19, 2014 at 1:56 AM


Visibility: 10 mi

Pressure: 29.89 "Hg

Humidity: 89%

Dew point: 43 °F

Location of SalemLocation

Historic Weather in Salem — Graph

°F

Salem temperature yesterday

Maximum temperature yesterday: 55 °F (at 7:56 PM)
Minimum temperature yesterday: 41 °F (at 3:56 AM)
Average temperature yesterday: 49 °F

Past Weeks' High & Low Weather Summary

 TemperatureHumidityPressure
High62 °F (Dec 9, 7:56 AM)100% (Dec 7, 5:01 AM)30.23 "Hg (Dec 7, 5:01 AM)
Low35 °F (Dec 13, 7:03 AM)50% (Dec 11, 1:56 PM)29.10 "Hg (Dec 11, 12:56 PM)
Average47 °F86%29.88 "Hg
* Reported Dec 4 12:56 AM — Dec 19 12:56 AM, Salem, Weather by CustomWeather, © 2014

Note: Actual official high and low records may vary slightly from our data, if they occured in-between our weather recording intervals... More about our weather records

Advertising

Salem weather history for previous 24 hours

 ConditionsComfort  
Time TempWeatherWind HumidityBarometerVisibility
12:56 AM
Dec 19
48 °FPassing clouds.9 mph89%29.88 "Hg10 mi
11:56 PM
Dec 18
48 °FLight rain. Mostly cloudy.7 mph86%29.88 "Hg10 mi
10:56 PM50 °FRain. Fog.10 mph86%29.87 "Hg6 mi
9:56 PM52 °FLight rain. Overcast.15 mph80%29.80 "Hg10 mi
8:56 PM52 °FLight rain. Overcast.13 mph80%29.78 "Hg10 mi
7:56 PM55 °FLight rain. Overcast.10 mph64%29.79 "Hg10 mi
6:56 PM54 °FOvercast.13 mph69%29.78 "Hg10 mi
5:56 PM51 °FOvercast.5 mph86%29.80 "Hg10 mi
4:56 PM50 °FLight rain. Overcast.7 mph89%29.81 "Hg10 mi
3:56 PM52 °FLight rain. Cloudy.7 mph80%29.83 "Hg9 mi
2:56 PM53 °FCloudy.8 mph77%29.84 "Hg10 mi
1:56 PM53 °FLight rain. Overcast.3 mph77%29.85 "Hg10 mi
12:56 PM52 °FMostly cloudy.13 mph77%29.87 "Hg10 mi
11:56 AM51 °FOvercast.10 mph80%29.89 "Hg10 mi
10:56 AM50 °FMostly cloudy.8 mph80%29.93 "Hg10 mi
9:56 AM48 °FOvercast.7 mph86%29.94 "Hg10 mi
8:56 AM46 °FOvercast.No wind93%29.93 "Hg10 mi
7:56 AM45 °FMostly cloudy.8 mph90%29.94 "Hg10 mi
6:56 AM45 °FMostly cloudy.3 mph93%29.94 "Hg10 mi
5:56 AM45 °FOvercast.6 mph90%29.94 "Hg10 mi
4:56 AM41 °FOvercast.No wind96%29.95 "Hg10 mi
3:56 AM41 °FFog.No wind93%29.96 "Hg4 mi
2:56 AM42 °FPassing clouds.No wind92%29.96 "Hg10 mi
Weather by CustomWeather, © 2014

See weather overviewHow to use our weather pages